{"data":{"norad_id":51758,"intl_designator":"2022-016AW","name":"STARLINK-3458","alt_names":[],"object_type":"PAYLOAD","status":"ACTIVE","operator":null,"country":"US","launch_date":"2022-02-21","launch_site_code":"AFETR","launch_vehicle":null,"mission":null,"orbit_class":"UNKNOWN","rcs_meters":null,"size_class":null,"mass_kg":null,"dimensions":null,"purposes":["comms"],"wikipedia_slug":null,"has_3d_model":false,"image_url":null,"decayed_at":null,"tle_current":{"epoch":"2026-05-24T21:29:19.485888Z","epoch_age_seconds":78125,"freshness":"FRESH","line1":"1 51758U 22016AW  26144.89536442  .00001840  00000+0  13361-3 0  9994","line2":"2 51758  53.2125 326.9734 0001317 108.0469 252.0666 15.08853077236350","mean_motion":15.08853077,"eccentricity":0.0001317,"inclination_deg":53.2125,"raan_deg":326.9734,"arg_perigee_deg":108.0469,"mean_anomaly_deg":252.0666,"bstar":0.00013361,"rev_number":23635,"period_min":95.436727535003,"perigee_km":538.79233851226,"apogee_km":540.61449767839,"semimajor_km":6917.8404180953,"source":"CELESTRAK","updated_at":"2026-05-25T13:38:16.948996Z"}}}